Location: Colorado Springs
(38.8340°N, 104.8210°W)
Time: 17:30:25
(UTC-06:00)

Vanguard 1 - Visible Passes

Search period start: 14 August 2018 00:00
Search period end: 24 August 2018 00:00
Orbit: 650 x 3833 km, 34.2° (Epoch: 13 August)

Date Brightness Start Highest point End Pass type
(mag) Time Alt. Az. Time Alt. Az. Time Alt. Az.
14 Aug 11.9 20:50:12 10° W 21:05:57 54° SSW 21:13:03 17° SE visible
14 Aug 12.4 23:19:31 10° W 23:25:14 16° SW 23:25:45 16° SW visible
15 Aug 11.9 21:12:00 10° W 21:26:38 45° SSW 21:32:47 20° SSE visible
16 Aug 12.0 21:33:55 10° W 21:47:08 36° SW 21:52:32 21° S visible
17 Aug 12.2 21:56:04 10° W 22:07:28 28° SW 22:12:19 19° S visible
18 Aug 12.4 19:48:48 10° W 20:07:38 57° SSW 20:18:11 10° SE visible
18 Aug 12.5 22:18:43 10° W 22:27:38 20° SW 22:32:07 15° SSW visible
19 Aug 12.5 20:10:38 10° W 20:28:24 49° SSW 20:38:35 10° SE visible
19 Aug 12.8 22:42:38 10° W 22:47:42 13° SW 22:51:50 10° SSW visible
20 Aug 12.6 20:32:35 10° W 20:48:57 40° SW 20:58:43 10° SSE visible
21 Aug 12.7 20:54:45 10° W 21:09:20 32° SW 21:18:31 10° SSE visible
22 Aug 12.8 21:17:21 10° W 21:29:32 24° SW 21:37:49 10° S visible
23 Aug 13.1 21:40:50 10° W 21:49:36 17° SW 21:56:15 10° SSW visible
